Wind_Speed
49 46 44 41 40 39 38 38 38 38 38 38 38 37 37 35 34 32 30 30 29 29 29 28 28 27 26 25 25 25 25 24 22 20 18 16 16 17 18 18 17 16 15 15 14 15 16 16 17 18 18 18 19 20 20 21 22 23 23 24 25 26 26
52 51 49 46 44 43 42 42 42 43 42 41 40 39 38 37 36 34 33 33 33 32 31 31 30 29 29 28 28 28 27 25 22 20 18 17 16 17 18 18 17 16 16 15 15 15 15 16 19 20 20 21 20 20 20 22 24 26 27 28 28 30 31
57 57 55 53 50 49 49 49 49 48 47 44 42 41 40 39 37 36 36 37 37 37 36 35 35 34 33 33 32 30 28 25 22 19 18 17 17 17 17 17 17 16 16 15 15 15 15 17 20 21 22 22 23 22 21 22 24 27 30 33 34 34 34
55 57 57 55 53 52 52 52 51 50 48 46 45 43 41 40 39 38 38 38 38 38 38 37 37 37 36 34 33 31 28 25 21 19 18 18 17 16 16 17 18 17 16 15 16 17 17 19 20 20 21 23 24 24 24 23 23 24 27 29 32 33 33
51 53 53 53 52 51 50 49 48 47 47 46 45 44 43 42 40 39 38 38 38 38 37 37 37 36 35 33 32 30 27 24 21 19 18 18 17 17 17 17 18 19 19 18 18 19 19 20 20 20 22 25 26 26 26 26 25 24 24 24 26 27 27
52 50 49 48 48 48 46 44 43 43 43 44 44 45 44 43 41 40 39 38 38 37 37 36 36 35 33 32 31 29 26 24 21 19 19 18 18 18 20 19 18 21 22 21 20 19 20 22 23 24 25 27 27 27 27 28 28 28 27 28 28 28 28
51 50 50 50 49 48 47 47 46 46 46 46 46 46 45 43 42 40 39 38 37 36 36 35 35 33 32 31 29 27 25 23 21 21 20 19 19 20 21 20 20 22 23 22 22 21 21 23 25 25 26 28 28 27 26 26 27 28 29 29 30 30 30
54 54 55 54 54 53 52 51 49 47 45 44 44 44 43 41 40 39 39 37 36 35 34 34 34 32 31 30 28 26 25 23 22 22 22 21 21 21 22 22 23 24 24 24 24 23 22 23 25 26 27 27 27 26 24 24 24 26 27 27 28 29 29
55 55 53 51 50 50 49 48 46 44 41 40 40 40 39 39 38 37 37 36 35 34 33 33 32 32 31 29 28 26 25 24 23 23 23 23 22 23 23 24 24 25 25 25 26 25 23 23 24 26 26 26 25 24 23 23 23 24 25 26 27 28 28
44 43 43 43 43 43 44 44 43 43 42 41 39 38 37 36 35 34 34 34 34 34 32 32 32 31 31 30 29 27 26 25 24 25 25 25 25 24 25 25 26 27 27 27 28 27 25 25 25 25 25 25 24 24 23 22 23 23 24 25 27 28 29
35 35 34 36 38 40 43 44 44 44 44 42 39 36 34 34 33 33 33 33 33 32 31 31 32 32 31 30 29 28 27 26 25 25 26 27 26 26 26 27 28 28 29 29 29 28 27 27 27 25 25 25 24 24 24 23 23 23 23 24 26 27 29
32 31 31 31 32 34 37 39 40 40 39 37 35 33 33 33 34 33 33 32 31 31 31 31 31 31 30 29 29 28 27 27 26 27 28 28 28 28 28 28 28 29 29 29 29 28 29 30 30 28 27 26 25 24 25 25 25 24 24 24 25 26 27
33 33 33 32 32 32 33 33 33 33 32 31 30 29 30 32 33 33 32 31 30 30 31 30 30 30 30 29 28 28 28 29 29 29 29 30 30 29 29 29 29 29 29 29 29 30 31 32 31 30 28 27 26 26 26 26 27 27 26 26 26 26 27
37 37 36 35 34 34 33 32 31 29 28 27 27 27 28 29 31 31 31 31 31 30 30 30 29 29 29 29 29 30 30 30 30 30 31 31 31 31 31 30 29 27 27 28 29 31 32 32 31 30 30 30 29 28 28 28 28 28 29 29 29 29 30
39 36 35 35 35 35 35 33 30 29 28 27 27 27 28 30 31 32 32 32 31 30 30 30 30 30 31 31 32 32 32 32 31 31 32 32 32 32 30 28 27 27 28 29 31 31 32 31 30 30 31 31 30 29 29 29 30 30 30 31 32 33 34
41 38 35 34 35 35 34 33 31 29 28 28 28 30 32 33 35 35 34 34 33 32 32 33 33 34 35 35 35 34 33 32 32 33 33 33 32 31 29 28 28 29 30 31 31 32 32 30 30 31 32 31 30 30 30 31 31 32 33 34 36 37 38
44 41 38 36 35 34 33 32 30 30 30 31 32 33 35 36 36 36 35 35 35 35 35 36 37 37 37 37 36 35 34 34 34 34 34 33 31 29 29 30 31 32 33 33 33 33 32 31 31 33 33 31 30 30 32 33 34 35 37 38 40 41 43
47 45 43 40 37 35 35 34 34 34 35 37 38 38 38 38 37 36 36 36 37 37 37 38 38 38 38 37 37 35 35 35 35 34 33 31 30 31 33 34 35 35 35 35 34 34 34 34 35 36 35 33 31 32 33 35 36 38 41 43 44 46 47
49 48 46 44 42 40 39 38 38 40 41 41 41 40 39 39 39 38 39 39 40 40 39 38 38 39 39 39 38 36 35 35 34 33 32 32 33 35 36 37 38 37 36 36 36 36 37 37 38 38 37 35 34 35 36 38 40 42 44 46 49 51 53
43 44 44 45 46 46 45 44 42 41 42 40 39 39 39 39 40 40 40 41 41 41 41 40 40 41 41 40 38 37 35 34 34 34 35 36 37 39 40 40 40 39 38 38 38 39 40 41 41 40 38 37 37 38 39 41 43 45 48 50 53 56 58
37 39 40 43 45 45 44 44 42 40 41 40 39 40 41 41 42 41 41 41 41 42 42 42 41 41 39 39 38 36 35 34 35 36 38 40 41 43 43 43 43 42 41 41 41 42 42 42 42 41 40 39 40 41 43 45 47 50 52 55 58 60 61
41 42 42 42 43 41 39 39 39 38 39 39 40 41 41 40 40 39 39 39 40 41 42 42 41 40 39 39 39 37 37 37 38 40 42 45 46 46 46 46 45 44 43 44 44 43 43 42 42 41 41 41 42 44 47 50 52 55 58 61 63 64 65
45 45 45 43 42 41 39 39 40 39 38 38 38 40 40 40 40 41 41 42 44 44 44 43 42 42 42 41 40 38 39 40 42 45 48 49 49 49 48 47 46 45 45 45 44 43 42 42 42 43 43 44 46 49 52 56 58 61 63 65 66 67 67
45 45 45 44 42 42 42 45 46 46 45 45 44 44 45 45 46 47 48 48 48 47 45 44 44 44 44 43 41 41 43 45 48 50 51 51 50 49 48 46 46 46 45 44 43 42 42 43 44 45 46 49 52 55 59 62 64 66 67 68 68 68 68
43 43 43 43 42 42 44 47 48 48 49 51 51 52 53 53 53 53 51 50 48 47 46 45 44 45 45 45 45 47 49 51 52 52 52 51 50 49 47 46 46 45 44 44 44 44 45 47 49 51 53 56 60 62 65 66 68 69 69 69 70 70 70
45 46 45 45 45 44 46 48 50 50 51 53 54 56 56 55 54 52 50 49 48 48 47 47 47 47 48 49 50 52 52 53 53 52 50 50 50 49 48 48 48 48 48 48 50 51 52 54 57 59 62 65 67 68 69 70 71 71 71 71 71 71 71
48 50 50 49 49 48 49 50 52 54 55 55 56 56 56 56 55 53 52 50 49 49 49 49 50 50 51 51 51 52 52 52 52 51 50 51 51 52 51 52 53 54 55 57 58 60 62 64 66 68 69 70 71 71 72 72 73 73 73 73 73 73 72
52 53 53 52 52 52 51 52 54 55 56 57 57 56 54 53 52 52 52 51 50 49 49 49 50 51 53 53 53 53 53 53 52 52 53 54 55 56 57 59 61 63 65 66 67 69 70 71 71 72 72 73 74 74 74 75 75 75 75 75 75 74 73
53 54 55 55 54 53 53 54 55 56 58 58 58 57 55 52 50 49 49 49 49 50 50 50 51 52 54 55 55 55 56 56 57 57 58 60 62 64 66 69 70 72 72 72 72 73 73 73 74 74 75 75 76 76 76 76 77 77 77 77 75 74 73
52 53 55 56 56 55 55 55 56 57 58 59 60 60 60 58 56 55 55 55 55 55 55 55 55 56 56 58 59 60 61 62 64 65 67 69 71 72 73 74 75 75 75 75 75 76 76 76 76 76 77 78 78 79 79 79 79 79 78 76 75 74 74
52 52 54 55 55 55 55 56 57 58 59 60 60 61 61 61 61 61 61 61 60 60 60 60 61 62 63 64 66 68 69 70 72 73 75 76 76 76 76 77 77 77 77 77 78 78 78 79 79 80 81 82 82 82 81 81 80 80 78 76 76 76 76
54 54 55 56 56 56 56 56 57 58 59 60 61 62 63 63 64 65 65 65 65 66 66 67 68 69 70 71 73 74 75 76 77 78 78 79 79 79 79 80 80 80 80 80 81 82 83 84 85 85 85 85 84 83 83 82 80 79 79 79 78 78 77
56 56 57 58 59 60 60 60 61 61 62 62 63 64 65 66 67 68 68 69 69 70 71 72 73 74 75 76 77 78 79 79 80 81 81 82 82 83 83 84 84 84 85 86 87 87 88 88 88 88 87 86 86 85 85 84 82 81 81 81 80 79 78
59 59 59 59 61 62 63 64 65 66 66 67 67 68 68 68 69 70 71 72 73 74 75 76 77 78 79 80 80 81 81 82 83 84 84 85 86 87 88 88 88 89 90 91 90 90 90 90 90 89 88 88 88 87 86 86 85 84 83 82 81 80 80
64 63 63 62 63 64 65 66 68 69 70 71 72 73 73 73 74 76 77 78 78 79 80 80 81 81 82 82 83 84 84 85 86 87 88 89 90 90 91 92 92 92 92 93 92 92 92 91 91 90 90 90 90 89 88 87 87 86 84 83 83 82 81
67 67 67 67 68 68 69 70 72 73 74 75 77 77 78 78 79 80 81 82 82 83 83 83 84 84 85 86 87 87 88 89 90 91 91 92 93 93 94 94 94 93 94 93 93 93 92 92 92 92 92 91 91 91 90 89 88 87 86 85 84 84 83
71 71 71 71 72 73 74 75 76 77 77 78 79 80 80 80 81 82 83 84 85 85 86 86 87 87 88 89 90 91 92 92 93 93 93 93 94 94 93 93 93 94 94 94 94 94 94 94 93 93 92 92 92 92 91 90 89 89 89 88 87 87 87
Wind_Direction
259 260 260 260 261 263 265 266 269 272 276 278 280 281 282 282 284 285 286 287 287 288 288 289 290 291 292 293 295 298 300 302 305 304 300 296 288 284 285 285 285 287 285 282 283 287 290 288 281 272 263 260 262 265 269 271 272 273 273 273 274 277 280
260 261 262 262 263 266 268 270 273 277 280 281 282 283 283 283 284 285 285 286 286 287 288 288 288 288 289 290 292 294 296 298 299 297 294 293 289 284 281 280 279 278 275 275 277 281 284 283 282 279 273 267 264 265 268 270 272 274 275 276 276 277 279
262 263 264 266 269 271 273 275 277 280 281 282 283 284 284 283 283 283 284 284 284 284 285 285 285 285 286 287 289 290 292 293 292 290 288 288 287 282 277 274 273 271 267 270 274 274 276 278 280 280 278 272 266 264 266 269 270 271 272 272 272 272 272
264 266 267 269 272 275 277 279 280 281 282 282 284 285 284 282 282 282 282 282 283 283 283 283 283 284 285 286 286 287 288 287 286 283 283 283 282 279 274 269 268 265 261 265 271 273 275 276 274 276 280 276 268 262 262 264 267 268 269 269 269 269 269
263 266 270 272 274 276 278 280 281 282 282 283 285 286 285 284 283 282 281 281 282 282 282 282 282 283 284 284 284 284 283 282 279 277 279 279 276 273 269 266 265 262 258 259 264 271 277 278 275 277 282 281 273 264 258 258 259 262 264 266 267 268 269
262 265 267 269 272 274 275 275 276 277 278 280 282 283 283 283 282 281 281 281 281 282 281 280 281 282 282 281 280 280 278 276 273 273 275 275 271 267 265 263 261 260 260 259 261 267 273 274 275 279 283 282 277 269 260 257 257 258 260 261 263 264 266
260 261 262 264 266 268 269 270 271 273 275 277 278 278 278 279 279 279 279 279 280 280 279 279 279 279 278 277 275 275 273 272 270 271 273 272 268 264 263 261 258 258 259 259 260 266 268 268 274 281 284 281 277 271 265 261 261 261 262 264 265 267 268
261 262 264 265 267 268 269 271 273 275 277 278 277 276 276 276 277 277 278 278 279 278 277 276 277 276 274 272 271 270 269 269 269 270 272 271 266 262 261 260 259 259 259 258 261 267 269 269 275 282 284 281 275 270 267 267 268 269 269 270 272 274 276
261 262 263 265 268 270 270 271 273 275 277 279 279 278 277 277 277 276 276 277 276 275 274 274 274 273 270 268 268 267 267 267 269 271 272 269 264 261 260 259 258 259 260 260 264 270 271 273 279 282 281 277 271 267 267 270 274 275 275 276 277 278 281
259 262 264 267 269 269 269 270 272 275 277 278 279 278 278 277 276 275 274 274 273 273 272 272 271 270 269 268 268 267 266 266 268 270 269 267 263 260 260 259 258 259 260 262 268 273 276 281 286 284 279 274 270 267 268 272 277 278 279 279 280 281 282
261 267 272 273 272 270 269 270 272 273 275 275 275 275 275 274 273 272 270 270 270 270 270 270 270 270 270 270 269 267 267 267 268 267 266 264 262 260 260 259 259 260 261 264 271 276 280 286 290 286 279 275 271 268 268 273 277 280 283 284 284 284 283
259 266 272 275 274 272 270 270 269 269 270 271 271 271 270 269 268 266 266 266 267 268 268 269 269 270 270 269 269 268 268 268 267 266 263 262 261 260 260 260 261 263 265 269 275 279 283 289 291 287 280 275 271 269 269 272 275 278 284 289 292 291 289
259 266 271 274 276 275 273 271 267 264 265 267 269 268 267 266 265 265 264 265 265 265 266 266 267 268 269 268 268 267 266 266 266 264 261 260 260 260 261 262 265 267 270 274 278 282 285 288 289 286 281 275 272 269 268 270 272 275 281 290 300 304 301
259 265 269 273 276 275 274 270 265 262 262 263 265 266 267 269 269 268 267 266 265 265 264 263 263 264 265 266 265 265 265 266 265 263 261 260 259 261 263 265 267 270 275 279 282 285 286 286 285 283 281 277 273 268 268 270 272 276 279 286 298 308 310
255 261 267 273 275 273 270 268 264 262 262 263 264 266 269 272 273 271 269 266 264 262 261 261 262 263 264 265 265 265 265 264 263 262 261 260 262 263 264 266 270 276 282 285 286 287 286 284 281 281 283 280 274 270 270 272 275 280 284 288 296 305 311
253 258 266 271 271 269 267 265 264 263 263 263 265 268 271 273 274 273 270 266 262 261 261 262 265 266 267 268 267 265 264 262 261 260 260 262 263 263 265 271 279 285 288 289 289 288 287 284 283 285 288 285 278 274 275 278 281 286 291 295 300 303 307
255 258 262 264 264 263 262 261 262 262 263 265 267 270 271 272 272 271 268 265 262 262 263 265 268 269 270 270 268 266 264 261 260 260 261 261 261 263 270 279 286 290 292 291 290 289 287 286 286 291 294 292 286 282 281 284 288 292 297 301 304 305 307
257 258 259 260 261 261 261 261 263 266 268 270 271 271 272 271 269 267 266 264 263 264 266 268 269 270 271 271 269 267 265 263 262 261 261 261 264 270 278 285 289 292 293 292 292 290 289 289 290 293 296 295 294 291 289 290 294 297 301 305 306 308 308
257 258 259 260 261 263 264 266 270 273 275 275 274 273 272 269 266 265 265 264 264 265 267 268 270 272 274 273 271 269 267 265 262 261 261 265 272 279 285 288 291 292 293 293 292 291 291 292 293 296 296 295 295 295 294 295 298 299 302 305 307 308 308
255 256 258 259 261 262 265 268 272 275 274 273 271 269 268 265 264 264 263 263 263 264 266 270 273 275 275 273 271 269 267 264 263 262 265 272 280 285 288 290 292 292 292 292 292 292 293 294 295 297 296 295 295 295 295 296 298 299 302 304 306 307 307
252 258 260 260 260 262 265 268 269 268 267 265 263 262 262 262 263 263 263 263 263 265 269 273 275 274 272 271 271 270 268 267 267 268 271 278 284 287 288 291 292 292 291 291 291 292 293 293 294 295 295 293 292 293 294 296 298 299 301 302 304 305 305
254 262 263 261 259 259 261 263 262 259 260 260 258 257 258 259 262 265 266 268 271 273 276 278 276 273 271 271 272 271 271 272 274 275 278 283 286 287 288 290 291 291 291 291 291 292 292 292 292 291 290 289 288 289 291 295 297 298 299 300 302 303 303
257 261 263 262 260 256 253 254 254 253 254 255 254 254 255 258 262 266 269 272 276 278 279 278 275 273 273 273 273 273 275 277 278 280 283 285 286 287 289 291 291 291 291 291 291 291 290 290 289 289 287 286 287 288 290 292 294 295 297 298 300 301 302
259 260 260 261 260 255 250 249 251 252 254 255 256 257 258 260 262 265 269 272 274 276 276 275 274 273 274 274 274 275 278 279 280 282 285 286 287 288 289 290 289 288 288 288 289 289 288 287 287 286 286 285 286 288 289 291 292 294 295 297 298 299 299
256 258 258 258 257 254 250 249 251 253 255 257 259 260 262 263 265 267 269 271 273 273 273 271 270 270 270 271 273 275 278 279 282 284 286 286 287 288 288 287 286 285 285 284 285 285 285 284 283 283 284 284 286 287 288 290 291 293 294 295 296 297 297
252 255 256 256 255 254 252 250 251 252 254 256 259 261 263 265 267 269 270 271 272 273 273 272 271 271 271 272 274 276 279 281 283 284 284 285 285 286 286 285 284 284 283 283 282 283 282 283 283 284 285 286 287 287 288 289 290 292 293 294 295 296 297
251 254 256 257 257 256 255 254 254 254 255 257 260 263 265 267 268 269 269 270 271 273 274 275 275 275 275 275 275 277 278 279 280 280 280 281 282 283 283 282 282 282 282 282 282 283 284 284 285 286 286 287 287 288 289 290 291 292 294 295 296 296 297
253 255 256 257 257 258 257 257 257 257 257 258 260 262 265 268 270 271 272 272 272 273 273 273 272 272 273 273 274 275 275 275 275 276 276 277 279 280 280 280 281 281 282 283 284 284 285 286 286 287 287 288 288 289 290 291 292 293 294 295 296 296 297
255 256 257 258 259 260 260 259 258 258 259 260 260 261 263 264 266 268 270 271 271 272 272 271 271 270 270 270 270 271 273 273 274 274 274 275 276 278 279 280 281 282 283 284 285 285 286 286 287 287 288 288 289 290 291 291 292 293 294 294 295 295 296
254 256 258 260 261 261 261 261 260 260 259 260 260 261 262 262 263 264 265 266 267 268 269 269 269 269 268 268 269 269 270 271 272 274 275 276 278 279 280 281 282 283 284 284 285 285 286 286 287 288 288 289 290 291 291 292 292 293 293 293 294 294 295
252 252 253 255 257 258 259 259 259 259 259 260 260 260 261 262 263 264 265 265 265 265 264 264 265 265 265 266 268 269 270 272 273 275 277 278 279 280 281 281 282 283 284 284 285 285 286 286 287 288 289 290 291 291 291 292 292 293 293 293 294 295 295
248 248 248 249 250 252 254 255 256 257 258 259 260 261 261 262 263 264 265 265 265 265 265 265 265 266 267 268 270 271 273 274 276 277 278 279 279 280 281 282 282 283 284 284 285 285 286 287 288 289 290 291 291 291 292 292 292 292 293 293 294 295 295
247 248 248 248 248 249 251 252 253 255 256 257 259 260 261 262 263 264 265 266 266 267 267 268 268 269 270 272 273 274 275 276 277 278 279 280 280 281 281 282 283 283 284 284 285 286 287 288 289 289 290 291 291 291 291 292 292 292 293 294 294 294 295
248 248 249 249 250 251 252 253 254 255 256 258 259 259 261 262 263 264 265 266 266 267 268 268 269 270 271 272 273 274 276 277 278 279 280 280 281 282 282 283 283 284 285 285 286 287 288 288 289 289 290 290 290 291 291 291 292 292 293 293 293 293 293
247 248 249 250 251 252 253 254 255 256 257 258 259 260 261 263 264 264 265 266 266 267 268 268 269 270 271 272 273 274 275 276 277 278 279 280 281 282 283 284 285 285 286 287 287 288 288 289 289 289 290 290 290 291 291 291 292 292 292 292 292 292 292
250 250 251 252 253 254 255 256 257 258 259 260 261 262 263 264 264 265 266 266 267 267 268 269 270 271 272 273 274 275 276 277 278 279 280 281 282 283 284 285 286 286 286 287 287 288 288 289 289 290 290 291 291 291 291 292 292 292 291 291 291 291 290
253 254 255 256 257 257 258 259 260 260 261 262 263 264 264 265 266 266 267 268 268 269 270 270 271 272 273 274 275 276 277 278 279 280 281 282 283 284 285 286 286 286 287 287 288 288 289 289 290 290 290 290 290 290 290 290 290 290 289 289 289 289 288
Height
10689 10692 10694 10695 10696 10697 10697 10697 10698 10698 10698 10698 10698 10698 10699 10698 10698 10698 10698 10698 10698 10698 10699 10699 10700 10700 10700 10701 10701 10701 10701 10700 10700 10700 10699 10699 10698 10697 10696 10696 10696 10695 10695 10694 10693 10691 10690 10689 10688 10688 10687 10686 10685 10684 10683 10682 10681 10680 10680 10679 10678 10678 10677
10685 10687 10689 10690 10692 10692 10692 10693 10694 10694 10694 10694 10694 10694 10694 10694 10694 10695 10695 10694 10694 10695 10695 10695 10696 10696 10697 10697 10697 10697 10697 10697 10697 10697 10696 10696 10695 10695 10694 10693 10693 10693 10693 10692 10690 10689 10688 10686 10685 10684 10683 10682 10681 10680 10680 10679 10678 10677 10676 10676 10675 10675 10674
10679 10682 10684 10686 10687 10687 10687 10688 10689 10689 10689 10689 10689 10689 10689 10689 10690 10690 10690 10690 10690 10690 10691 10691 10692 10692 10693 10693 10693 10693 10693 10693 10693 10693 10693 10693 10692 10692 10691 10691 10691 10690 10690 10689 10687 10686 10685 10684 10682 10681 10680 10679 10678 10677 10676 10675 10674 10674 10673 10673 10672 10672 10671
10675 10676 10679 10680 10681 10681 10682 10682 10683 10683 10683 10684 10685 10685 10685 10685 10685 10686 10686 10686 10686 10686 10686 10687 10687 10688 10688 10689 10689 10689 10689 10689 10690 10690 10690 10689 10689 10689 10689 10688 10688 10688 10688 10687 10685 10683 10682 10681 10679 10679 10678 10676 10675 10673 10672 10672 10671 10670 10670 10669 10669 10669 10668
10671 10672 10673 10674 10675 10676 10677 10677 10677 10677 10678 10678 10679 10680 10680 10680 10680 10681 10681 10681 10681 10681 10682 10682 10683 10683 10684 10684 10684 10685 10685 10685 10686 10686 10686 10686 10685 10685 10685 10685 10685 10684 10684 10684 10682 10680 10679 10677 10676 10675 10675 10673 10672 10671 10670 10669 10668 10667 10666 10665 10665 10664 10664
10668 10669 10669 10669 10670 10671 10672 10673 10673 10673 10673 10674 10674 10674 10675 10675 10675 10675 10676 10676 10677 10677 10677 10678 10678 10679 10679 10680 10680 10681 10681 10681 10681 10682 10683 10682 10682 10681 10681 10681 10681 10680 10680 10680 10679 10678 10677 10674 10673 10673 10672 10670 10669 10667 10666 10666 10665 10664 10663 10662 10661 10660 10660
10665 10665 10665 10664 10665 10666 10667 10668 10668 10669 10670 10670 10670 10670 10670 10670 10670 10670 10671 10672 10672 10672 10673 10673 10674 10674 10675 10676 10676 10677 10677 10677 10678 10678 10678 10678 10678 10678 10677 10677 10677 10676 10676 10676 10676 10675 10674 10672 10670 10669 10668 10667 10665 10664 10663 10662 10661 10660 10659 10659 10658 10657 10656
10659 10659 10658 10659 10660 10660 10661 10661 10662 10664 10665 10666 10666 10666 10666 10665 10665 10665 10666 10667 10668 10668 10668 10669 10669 10670 10671 10671 10672 10673 10673 10673 10674 10674 10674 10674 10674 10674 10674 10673 10673 10673 10673 10673 10672 10672 10671 10669 10667 10666 10665 10664 10662 10660 10660 10659 10658 10657 10656 10655 10654 10654 10653
10653 10652 10651 10652 10654 10654 10655 10655 10657 10659 10660 10661 10661 10661 10661 10661 10661 10661 10661 10662 10663 10664 10664 10664 10665 10666 10666 10667 10668 10669 10669 10669 10670 10669 10669 10670 10670 10670 10670 10670 10669 10669 10669 10669 10669 10668 10668 10667 10665 10664 10662 10660 10659 10657 10657 10656 10655 10654 10653 10652 10651 10650 10650
10647 10646 10647 10647 10648 10648 10648 10649 10652 10654 10655 10656 10657 10656 10656 10656 10656 10657 10657 10658 10659 10659 10659 10660 10661 10662 10662 10663 10664 10664 10665 10665 10666 10665 10665 10665 10665 10665 10665 10665 10665 10665 10665 10665 10664 10664 10663 10663 10662 10660 10658 10657 10656 10655 10654 10653 10652 10650 10650 10649 10648 10647 10646
10641 10642 10642 10642 10642 10642 10642 10644 10647 10649 10650 10651 10652 10652 10651 10651 10651 10652 10653 10654 10654 10655 10655 10656 10657 10658 10658 10659 10659 10660 10660 10661 10661 10661 10660 10660 10660 10660 10661 10661 10661 10661 10661 10660 10660 10659 10659 10658 10657 10656 10654 10653 10652 10651 10650 10649 10648 10647 10646 10645 10644 10643 10642
10636 10637 10637 10637 10637 10636 10637 10639 10642 10644 10645 10646 10647 10647 10647 10647 10647 10647 10648 10649 10650 10651 10651 10652 10652 10653 10654 10655 10655 10655 10656 10656 10657 10657 10656 10656 10655 10655 10656 10656 10656 10656 10656 10656 10655 10655 10654 10653 10653 10651 10650 10649 10648 10647 10646 10645 10644 10643 10643 10641 10640 10639 10638
10632 10632 10633 10633 10632 10632 10633 10635 10637 10638 10639 10640 10642 10643 10643 10643 10643 10643 10644 10645 10646 10646 10647 10648 10648 10649 10649 10650 10651 10651 10651 10651 10652 10652 10651 10651 10651 10651 10651 10651 10651 10651 10651 10651 10650 10649 10649 10648 10648 10647 10646 10645 10644 10642 10641 10641 10640 10639 10638 10637 10636 10635 10634
10628 10628 10628 10628 10628 10628 10629 10630 10632 10633 10634 10636 10637 10638 10639 10639 10639 10639 10640 10641 10642 10642 10642 10643 10644 10644 10645 10646 10647 10647 10647 10647 10647 10647 10647 10646 10646 10646 10646 10646 10647 10647 10646 10646 10645 10644 10643 10643 10643 10642 10641 10640 10639 10638 10637 10636 10635 10635 10634 10633 10631 10630 10628
10624 10624 10624 10624 10624 10623 10624 10626 10628 10629 10630 10631 10632 10634 10635 10635 10635 10635 10636 10637 10638 10638 10638 10638 10639 10640 10640 10641 10642 10642 10642 10642 10642 10642 10642 10642 10642 10642 10642 10642 10642 10642 10642 10641 10640 10639 10638 10638 10638 10637 10636 10636 10634 10633 10633 10632 10631 10630 10629 10627 10626 10624 10623
10620 10620 10620 10620 10620 10619 10620 10622 10623 10625 10626 10627 10628 10629 10631 10631 10631 10632 10632 10633 10634 10634 10634 10634 10634 10635 10636 10637 10637 10638 10638 10637 10637 10637 10637 10637 10637 10637 10637 10637 10637 10637 10637 10636 10635 10634 10633 10633 10633 10632 10631 10631 10630 10629 10628 10627 10626 10624 10623 10621 10620 10618 10617
10616 10616 10616 10616 10616 10616 10617 10619 10620 10621 10622 10622 10623 10624 10625 10626 10627 10627 10628 10628 10629 10630 10630 10629 10629 10630 10631 10632 10632 10633 10633 10633 10632 10632 10633 10633 10633 10633 10632 10632 10632 10632 10631 10631 10630 10629 10628 10627 10627 10627 10626 10625 10624 10623 10622 10621 10620 10618 10617 10615 10614 10612 10610
10611 10611 10610 10611 10613 10614 10615 10615 10616 10617 10617 10618 10618 10619 10620 10621 10622 10622 10623 10624 10624 10625 10625 10625 10625 10625 10626 10627 10627 10627 10628 10628 10628 10628 10628 10628 10628 10628 10627 10627 10627 10627 10626 10625 10624 10623 10622 10622 10622 10621 10620 10619 10618 10616 10615 10614 10613 10611 10609 10608 10607 10605 10604
10606 10606 10607 10608 10610 10610 10611 10612 10612 10612 10612 10612 10613 10614 10615 10616 10617 10618 10619 10619 10620 10620 10620 10621 10621 10621 10621 10621 10622 10622 10622 10623 10623 10623 10623 10623 10623 10623 10622 10621 10621 10621 10620 10619 10618 10618 10616 10616 10615 10614 10613 10612 10610 10609 10608 10607 10605 10604 10602 10600 10599 10598 10596
10600 10602 10604 10604 10604 10605 10606 10607 10607 10607 10607 10607 10607 10608 10609 10610 10611 10612 10613 10614 10614 10615 10615 10616 10617 10616 10616 10616 10617 10617 10617 10618 10618 10618 10618 10618 10617 10617 10616 10615 10615 10615 10614 10613 10612 10612 10610 10609 10608 10607 10606 10604 10603 10602 10601 10600 10598 10596 10594 10593 10592 10591 10589
10595 10598 10600 10599 10599 10600 10601 10602 10603 10602 10602 10603 10603 10604 10604 10604 10605 10606 10607 10608 10609 10609 10610 10611 10611 10611 10611 10611 10611 10611 10612 10613 10613 10613 10612 10612 10611 10610 10610 10609 10609 10608 10608 10607 10606 10605 10604 10602 10601 10599 10598 10597 10596 10595 10594 10593 10591 10589 10587 10586 10585 10584 10582
10593 10594 10595 10595 10595 10596 10597 10598 10598 10598 10598 10598 10599 10599 10600 10599 10599 10600 10601 10601 10602 10603 10603 10604 10604 10605 10605 10605 10605 10605 10606 10606 10606 10606 10606 10605 10605 10604 10603 10602 10602 10601 10601 10600 10600 10598 10597 10595 10593 10592 10591 10590 10589 10588 10587 10585 10584 10583 10581 10579 10577 10576 10574
10590 10590 10591 10592 10592 10593 10593 10593 10593 10593 10593 10593 10594 10595 10595 10596 10595 10595 10595 10596 10596 10597 10597 10597 10598 10598 10599 10599 10599 10599 10599 10599 10599 10599 10599 10599 10598 10597 10596 10595 10594 10594 10593 10592 10591 10590 10589 10587 10586 10585 10584 10583 10582 10581 10580 10579 10577 10576 10574 10572 10570 10568 10566
10584 10585 10586 10587 10588 10588 10588 10587 10587 10588 10588 10587 10588 10589 10590 10591 10591 10591 10591 10592 10592 10592 10592 10592 10592 10592 10592 10593 10593 10593 10593 10592 10592 10592 10592 10591 10591 10590 10589 10588 10587 10586 10585 10584 10583 10582 10581 10580 10579 10578 10578 10577 10576 10575 10574 10572 10570 10569 10567 10565 10563 10560 10558
10577 10579 10581 10581 10582 10583 10583 10583 10582 10582 10582 10581 10582 10582 10583 10585 10586 10587 10587 10587 10587 10587 10587 10587 10587 10587 10587 10587 10587 10587 10587 10586 10585 10585 10584 10583 10582 10581 10581 10580 10580 10579 10578 10577 10576 10576 10575 10575 10574 10573 10572 10571 10570 10569 10567 10566 10564 10562 10560 10558 10556 10553 10550
10572 10573 10575 10576 10577 10578 10578 10578 10578 10577 10576 10575 10576 10577 10578 10579 10580 10581 10582 10581 10581 10581 10581 10582 10582 10582 10582 10582 10581 10580 10580 10579 10578 10577 10576 10575 10574 10573 10573 10573 10572 10572 10571 10571 10571 10570 10570 10569 10568 10567 10566 10564 10562 10561 10560 10558 10555 10554 10552 10550 10547 10544 10541
10567 10568 10569 10570 10571 10572 10573 10573 10572 10572 10572 10571 10571 10572 10573 10573 10574 10575 10576 10576 10576 10575 10575 10574 10574 10574 10574 10573 10573 10573 10572 10571 10571 10570 10569 10568 10567 10566 10566 10565 10565 10565 10565 10565 10565 10564 10563 10562 10561 10559 10557 10555 10553 10551 10550 10548 10545 10543 10542 10539 10537 10534 10532
10562 10562 10563 10564 10565 10566 10567 10567 10567 10567 10567 10567 10568 10568 10568 10568 10568 10568 10569 10569 10569 10569 10569 10568 10568 10567 10566 10566 10566 10565 10565 10564 10564 10563 10562 10562 10561 10560 10560 10559 10558 10558 10558 10557 10557 10556 10554 10553 10551 10549 10547 10545 10543 10541 10540 10537 10534 10533 10531 10529 10527 10524 10522
10555 10555 10556 10557 10559 10560 10561 10561 10561 10562 10562 10562 10563 10564 10564 10564 10564 10563 10563 10563 10563 10563 10562 10562 10562 10561 10560 10560 10559 10559 10558 10558 10557 10556 10556 10555 10554 10554 10553 10551 10551 10550 10549 10548 10547 10546 10544 10542 10541 10539 10537 10535 10533 10531 10529 10527 10524 10523 10521 10519 10517 10515 10513
10549 10549 10549 10550 10552 10553 10554 10555 10556 10556 10556 10557 10557 10558 10558 10559 10559 10559 10558 10558 10558 10557 10557 10556 10556 10555 10554 10554 10553 10552 10552 10551 10550 10549 10548 10547 10546 10545 10543 10542 10541 10540 10539 10539 10537 10535 10534 10532 10530 10529 10527 10525 10523 10521 10519 10517 10514 10512 10511 10510 10507 10505 10502
10543 10544 10544 10544 10545 10546 10547 10548 10549 10550 10550 10550 10551 10551 10552 10552 10552 10552 10551 10551 10551 10551 10550 10550 10549 10548 10547 10546 10545 10545 10544 10543 10542 10541 10540 10538 10537 10535 10534 10532 10531 10530 10529 10528 10526 10524 10523 10522 10520 10518 10516 10515 10513 10510 10507 10506 10505 10502 10501 10500 10497 10494 10492
10537 10538 10539 10539 10539 10540 10540 10541 10542 10543 10543 10543 10543 10544 10544 10544 10544 10544 10543 10543 10543 10542 10542 10541 10540 10540 10539 10538 10537 10536 10535 10534 10533 10532 10530 10529 10527 10526 10525 10523 10522 10521 10519 10518 10516 10513 10512 10511 10509 10507 10505 10503 10501 10499 10496 10495 10495 10492 10489 10488 10487 10484 10482
10530 10531 10532 10533 10534 10534 10534 10535 10536 10536 10536 10536 10536 10536 10536 10536 10536 10536 10536 10535 10535 10534 10533 10533 10532 10531 10530 10529 10528 10527 10525 10524 10523 10521 10520 10518 10517 10516 10514 10513 10513 10511 10508 10507 10506 10504 10502 10500 10498 10496 10495 10492 10490 10488 10485 10484 10484 10482 10478 10476 10475 10473 10471
10523 10524 10525 10526 10527 10527 10527 10528 10528 10529 10529 10528 10528 10528 10528 10529 10528 10528 10527 10527 10526 10525 10525 10524 10523 10522 10521 10520 10519 10517 10516 10515 10512 10511 10509 10507 10505 10504 10503 10502 10502 10500 10496 10494 10494 10493 10491 10489 10487 10485 10483 10480 10478 10477 10476 10473 10471 10471 10468 10466 10464 10462 10460
10516 10517 10518 10519 10519 10519 10520 10520 10520 10520 10520 10520 10520 10520 10520 10520 10520 10519 10518 10517 10517 10516 10515 10515 10514 10513 10512 10511 10509 10508 10507 10505 10503 10501 10499 10497 10495 10493 10491 10490 10490 10488 10484 10482 10481 10480 10478 10476 10475 10473 10471 10468 10465 10464 10463 10462 10459 10458 10457 10455 10453 10451 10449
10509 10510 10511 10511 10511 10512 10512 10512 10511 10511 10511 10511 10510 10510 10511 10510 10510 10509 10508 10507 10507 10506 10506 10505 10504 10503 10502 10500 10499 10497 10496 10495 10492 10490 10489 10486 10484 10482 10480 10479 10477 10475 10472 10470 10468 10467 10465 10463 10462 10460 10457 10455 10452 10450 10449 10449 10447 10444 10443 10443 10442 10440 10438
10501 10502 10503 10503 10503 10503 10503 10503 10502 10502 10502 10501 10501 10500 10500 10500 10500 10499 10498 10497 10497 10496 10496 10495 10494 10493 10492 10490 10489 10487 10485 10484 10482 10480 10478 10475 10473 10471 10469 10467 10464 10461 10458 10456 10455 10453 10451 10450 10448 10447 10445 10442 10440 10438 10437 10436 10435 10433 10431 10431 10430 10429 10427